"Pseudo-MPEC" for P21OuZE

Created 2023 Nov 30 7:22:06 UT using Find_Orb

Click here for an explanation of pseudo-MPECs

 
 Astrometry: 
     P21OuZE* C2023 11 20SNSZISvq:Ti3nnPlAstrometry19;U:redacted;E8ciCYbPb;d?F52
     P21OuZE  C2023 11 206X0EXNGc@3click[hpZY:hereIVte`6Kyir6G\pG;DH$d[yIw3)0F52
     P21OuZE  C2023 11 20NRg='8xR.forQexplanationuZAw7DW5l5SN,wm@'#H3DJQL)XJZF52

Station data:
(F52) Pan-STARRS 2, Haleakala  (N20.707382 W156.255910)  US/Hawaii.
   Observers J. Bulger, T. Dukes, T. Lowe, A. Schultz, M. Willman. Measurers
   K. Chambers, S. Chastel, T. de Boer, L. Denneau, J. Fairlamb, H.
   Flewelling, M. Huber, C.-C. Lin, E. Magnier, Y. Ramanjooloo, R. Wainscoat,
   R. Weryk. 1.8-m Ritchey-Chrétien + CCD.

Orbital elements:  P21OuZE
   Perihelion 2023 Aug 1.71670 +/- 182 TT = 17:12:02 (JD 2460158.21670)
Epoch 2023 Nov 21.0 TT = JDT 2460269.5   Earth MOID: 0.5437   Sa: 0.4861
M   8.76074103 +/- 57               (J2000 ecliptic)             AutoNEOCP
n   0.07872466 +/- 0.189            Peri.  180.18842 +/- 90
a   5.39173849 +/- 8.65             Node   198.96881 +/- 57
e   0.7140497 +/- 0.275             Incl.   32.19849 +/- 15
P  12.52                   H 18.80  G  0.15   U 11.6  SR
q 1.54176904 +/- 0.966    Q 9.24170794 +/- 39.1
From 3 observations 2023 Nov. 20 (29.7 min); mean residual 0".04
Residuals in arcseconds: 
231120 F52  .03+  .03-    231120 F52  .05-  .06+    231120 F52  .03+  .03-    

Ephemerides (geocentric):
Date (UTC) HH   RA             Dec           delta  r     elong  mag " sig PA
---- --------  ------------   ------------  ------ ------ -----  --- --------
2023 11 30 07  06 23 08.634   -25 46 35.65  1.3277 2.0530 124.4 22.1  33d  73
2023 11 30 08  06 23 06.747   -25 47 04.54  1.3279 2.0533 124.4 22.1  33d  73
2023 11 30 09  06 23 04.859   -25 47 33.37  1.3281 2.0535 124.4 22.1  33d  73
2023 11 30 10  06 23 02.968   -25 48 02.15  1.3283 2.0538 124.4 22.1  33d  73
2023 11 30 11  06 23 01.075   -25 48 30.86  1.3284 2.0541 124.4 22.1  33d  73
2023 11 30 12  06 22 59.179   -25 48 59.52  1.3286 2.0544 124.5 22.1  33d  73
2023 11 30 13  06 22 57.281   -25 49 28.12  1.3288 2.0547 124.5 22.1  33d  73
2023 11 30 14  06 22 55.381   -25 49 56.66  1.3290 2.0550 124.5 22.1  33d  73
2023 11 30 15  06 22 53.479   -25 50 25.14  1.3291 2.0553 124.5 22.1  33d  73
2023 11 30 16  06 22 51.575   -25 50 53.56  1.3293 2.0556 124.5 22.1  33d  73
2023 11 30 17  06 22 49.668   -25 51 21.93  1.3295 2.0559 124.5 22.1  33d  73
2023 11 30 18  06 22 47.759   -25 51 50.23  1.3297 2.0561 124.5 22.1  33d  73
2023 11 30 19  06 22 45.848   -25 52 18.48  1.3299 2.0564 124.6 22.1  33d  73
2023 11 30 20  06 22 43.935   -25 52 46.67  1.3300 2.0567 124.6 22.1  33d  73
2023 11 30 21  06 22 42.019   -25 53 14.80  1.3302 2.0570 124.6 22.1  33d  73
2023 11 30 22  06 22 40.101   -25 53 42.87  1.3304 2.0573 124.6 22.1  33d  73
2023 11 30 23  06 22 38.181   -25 54 10.88  1.3306 2.0576 124.6 22.1  33d  73
2023 12 01 00  06 22 36.259   -25 54 38.83  1.3308 2.0579 124.6 22.1  33d  73
2023 12 01 01  06 22 34.335   -25 55 06.73  1.3309 2.0582 124.6 22.1  33d  73
2023 12 01 02  06 22 32.408   -25 55 34.56  1.3311 2.0584 124.7 22.1  33d  73
2023 12 01 03  06 22 30.479   -25 56 02.34  1.3313 2.0587 124.7 22.1  33d  73
2023 12 01 04  06 22 28.549   -25 56 30.05  1.3315 2.0590 124.7 22.1  33d  73
2023 12 01 05  06 22 26.615   -25 56 57.71  1.3317 2.0593 124.7 22.1  33d  73
2023 12 01 06  06 22 24.680   -25 57 25.31  1.3318 2.0596 124.7 22.1  33d  73
2023 12 01 07  06 22 22.743   -25 57 52.85  1.3320 2.0599 124.7 22.1  33d  73
2023 12 01 08  06 22 20.803   -25 58 20.33  1.3322 2.0602 124.7 22.1  33d  73
2023 12 01 09  06 22 18.862   -25 58 47.76  1.3324 2.0605 124.7 22.1  33d  73
2023 12 01 10  06 22 16.918   -25 59 15.12  1.3326 2.0608 124.8 22.1  33d  73
2023 12 01 11  06 22 14.972   -25 59 42.42  1.3328 2.0611 124.8 22.1  33d  73
2023 12 01 12  06 22 13.024   -26 00 09.67  1.3329 2.0613 124.8 22.1  33d  73
2023 12 01 13  06 22 11.073   -26 00 36.85  1.3331 2.0616 124.8 22.1  33d  73
2023 12 01 14  06 22 09.121   -26 01 03.98  1.3333 2.0619 124.8 22.1  33d  73
2023 12 01 15  06 22 07.167   -26 01 31.05  1.3335 2.0622 124.8 22.1  33d  73
2023 12 01 16  06 22 05.210   -26 01 58.06  1.3337 2.0625 124.8 22.1  33d  73
2023 12 01 17  06 22 03.251   -26 02 25.01  1.3339 2.0628 124.9 22.1  33d  73
2023 12 01 18  06 22 01.290   -26 02 51.90  1.3340 2.0631 124.9 22.1  33d  73
2023 12 01 19  06 21 59.328   -26 03 18.73  1.3342 2.0634 124.9 22.1  33d  73
2023 12 01 20  06 21 57.363   -26 03 45.50  1.3344 2.0637 124.9 22.1  33d  73
2023 12 01 21  06 21 55.396   -26 04 12.21  1.3346 2.0639 124.9 22.1  33d  73
2023 12 01 22  06 21 53.426   -26 04 38.87  1.3348 2.0642 124.9 22.1  33d  73
2023 12 01 23  06 21 51.455   -26 05 05.46  1.3350 2.0645 124.9 22.1  33d  73
2023 12 02 00  06 21 49.482   -26 05 32.00  1.3352 2.0648 125.0 22.1  33d  73
2023 12 02 01  06 21 47.507   -26 05 58.47  1.3353 2.0651 125.0 22.1  33d  73
2023 12 02 02  06 21 45.529   -26 06 24.89  1.3355 2.0654 125.0 22.1  33d  74
2023 12 02 03  06 21 43.550   -26 06 51.25  1.3357 2.0657 125.0 22.1  33d  74
2023 12 02 04  06 21 41.568   -26 07 17.54  1.3359 2.0660 125.0 22.1  33d  74
2023 12 02 05  06 21 39.585   -26 07 43.78  1.3361 2.0663 125.0 22.1  33d  74
2023 12 02 06  06 21 37.599   -26 08 09.96  1.3363 2.0666 125.0 22.1  33d  74